Date String (YYYY-MM-DD hh:mm:ss) UTC,Instrument flags,absolute air pressure of the measurement (hPa),sample flow rate (lpm),inlet stack bypass flow (lpm),air temperature of the measurement (°C),ambient temperature measured by the external sensor (°C),aerosol sample conditioner tube jacket temperature (°C),OPC LED temperature (°C),internal box temperature (°C),relative humidity of the measurement (%),span deviation,mass concentration of particles derived from Lorenz-Mie calculation of OPC scattering (μg/m³),mass concentration of particles derived from Lorenz-Mie calculation of OPC scattering (μg/m³),mass concentration of particles derived from Lorenz-Mie calculation of OPC scattering (μg/m³)
DateTimeUTC,F1_M11,P_M11,Q1_M11,Q2_M11,T1_M11,T2_M11,T3_M11,T4_M11,T5_M11,U1_M11,ZSPAN_M11,X0_M11,X2_M11,X1_M11
2023-07-10 02:00:00,SystemResetWarning,0832.2,5.01,000.00,031.4,026.5,000.0,039.3,031.1,33.0,0000.0,0013.59,0007.71,0007.02
2023-07-10 02:01:00,SystemResetWarning,0832.2,5.00,000.00,031.4,026.9,000.0,039.3,031.2,33.2,0000.0,0013.38,0007.71,0007.00
2023-07-10 02:02:00,SystemResetWarning,0832.2,5.00,000.00,031.3,027.3,000.0,039.3,031.3,33.4,0000.0,0012.76,0007.68,0006.97
2023-07-10 02:03:00,SystemResetWarning,0832.2,5.00,000.00,031.3,027.6,000.0,039.3,031.4,33.4,0000.0,0013.22,0007.63,0006.95
2023-07-10 02:04:00,SystemResetWarning,0832.2,4.99,000.00,031.3,027.9,000.0,039.3,031.5,33.3,0000.0,0013.54,0007.60,0006.93
2023-07-10 02:05:00,SystemResetWarning,0832.2,4.99,000.00,031.3,027.9,000.0,039.3,031.6,33.3,0000.0,0013.26,0007.57,0006.94
2023-07-10 02:06:00,SystemResetWarning,0832.2,5.00,000.00,031.3,026.7,000.0,039.2,031.5,33.1,0000.0,0013.10,0007.51,0006.93
2023-07-10 02:07:00,SystemResetWarning,0832.2,5.00,000.00,031.3,025.9,000.0,039.1,031.4,33.3,0000.0,0013.23,0007.51,0006.94
2023-07-10 02:08:00,SystemResetWarning,0832.2,5.02,000.00,031.2,025.9,000.0,039.1,031.2,33.2,0000.0,0012.79,0007.50,0006.92
2023-07-10 02:09:00,SystemResetWarning,0832.2,5.01,000.00,031.0,026.2,000.0,039.1,031.1,33.3,0000.0,0011.85,0007.47,0006.91
2023-07-10 02:10:00,SystemResetWarning,0832.2,5.00,000.00,030.9,026.6,000.0,039.1,031.2,33.3,0000.0,0012.15,0007.44,0006.91
2023-07-10 02:11:00,SystemResetWarning,0832.2,4.99,000.00,030.9,027.0,000.0,039.1,031.2,33.3,-001.2,0012.51,0007.48,0006.93
2023-07-10 02:12:00,SystemResetWarning,0832.1,5.01,000.00,030.9,027.3,000.0,039.1,031.3,33.5,-000.7,0013.11,0007.47,0006.93
2023-07-10 02:13:00,SystemResetWarning,0832.2,5.00,000.00,030.9,027.6,000.0,039.1,031.4,33.6,-001.6,0013.45,0007.52,0006.96
2023-07-10 02:14:00,SystemResetWarning,0832.2,5.00,000.00,030.9,027.8,000.0,039.1,031.5,33.9,-000.6,0013.05,0007.53,0006.98
2023-07-10 02:15:00,SystemResetWarning,0832.2,4.98,000.00,030.9,026.6,000.0,038.9,031.4,33.9,-001.6,0012.54,0007.54,0006.98
2023-07-10 02:16:00,SystemResetWarning,0832.2,5.02,000.00,030.8,025.7,000.0,038.8,031.2,34.2,-001.8,0012.57,0007.55,0007.00
2023-07-10 02:17:00,SystemResetWarning,0832.2,5.00,000.00,030.7,025.8,000.0,038.8,031.0,34.2,-001.3,0012.67,0007.60,0007.02
2023-07-10 02:18:00,SystemResetWarning,0832.2,4.99,000.00,030.6,026.1,000.0,038.8,031.0,34.4,-001.0,0012.61,0007.64,0007.03
2023-07-10 02:19:00,SystemResetWarning,0832.2,5.00,000.00,030.5,026.5,000.0,038.8,031.0,34.7,-001.0,0012.66,0007.65,0007.06
2023-07-10 02:20:00,SystemResetWarning,0832.2,5.00,000.00,030.5,026.9,000.0,038.8,031.1,34.8,-000.9,0012.96,0007.71,0007.09
2023-07-10 02:21:00,SystemResetWarning,0832.2,5.01,000.00,030.5,027.3,000.0,038.8,031.2,34.7,-000.8,0012.78,0007.72,0007.11
2023-07-10 02:22:00,SystemResetWarning,0832.2,4.98,000.00,030.5,027.6,000.0,038.8,031.3,34.7,-001.1,0012.92,0007.70,0007.12
2023-07-10 02:23:00,SystemResetWarning,0832.2,5.00,000.00,030.5,027.8,000.0,038.8,031.3,34.6,-000.8,0012.66,0007.77,0007.16
2023-07-10 02:24:00,SystemResetWarning,0832.2,4.99,000.00,030.5,027.6,000.0,038.7,031.4,34.6,-000.5,0012.53,0007.77,0007.17
2023-07-10 02:25:00,SystemResetWarning,0832.2,5.00,000.00,030.4,025.9,000.0,038.6,031.2,34.5,-000.8,0012.85,0007.81,0007.18
2023-07-10 02:26:00,SystemResetWarning,0832.2,5.01,000.00,030.3,025.0,000.0,038.5,031.0,34.4,-000.5,0013.06,0007.86,0007.22
2023-07-10 02:27:00,SystemResetWarning,0832.2,5.01,000.00,030.2,025.0,000.0,038.4,030.7,34.7,-000.2,0013.41,0007.88,0007.24
2023-07-10 02:28:00,SystemResetWarning,0832.2,5.00,000.00,030.1,025.3,000.0,038.4,030.7,34.8,-000.0,0013.45,0007.89,0007.27
2023-07-10 02:29:00,SystemResetWarning,0832.2,5.00,000.00,030.0,025.8,000.0,038.4,030.7,34.8,-000.1,0013.36,0007.87,0007.29
2023-07-10 02:30:00,SystemResetWarning,0832.2,5.00,000.00,030.0,026.3,000.0,038.4,030.8,34.8,-000.1,0013.94,0007.88,0007.29
2023-07-10 02:31:00,SystemResetWarning,0832.2,4.99,000.00,030.0,026.7,000.0,038.4,030.9,34.8,-000.0,0014.28,0007.88,0007.30
2023-07-10 02:32:00,SystemResetWarning,0832.2,4.99,000.00,030.0,027.1,000.0,038.4,031.0,34.9,-000.6,0014.38,0007.89,0007.32
2023-07-10 02:33:00,SystemResetWarning,0832.2,5.00,000.00,030.0,027.4,000.0,038.4,031.1,34.9,-000.6,0013.90,0007.94,0007.36
2023-07-10 02:34:00,SystemResetWarning,0832.2,5.02,000.00,030.0,027.7,000.0,038.4,031.1,34.9,-001.0,0013.66,0007.94,0007.39
2023-07-10 02:35:00,SystemResetWarning,0832.2,4.99,000.00,030.0,027.9,000.0,038.4,031.2,34.9,-001.0,0013.46,0007.96,0007.43
2023-07-10 02:36:00,SystemResetWarning,0832.2,4.99,000.00,030.0,027.1,000.0,038.3,031.1,34.8,-001.0,0013.07,0007.94,0007.45
2023-07-10 02:37:00,SystemResetWarning,0832.2,4.99,000.00,030.0,025.9,000.0,038.2,030.9,35.0,-001.6,0012.96,0007.94,0007.44
2023-07-10 02:38:00,SystemResetWarning,0832.2,5.02,000.00,029.9,025.6,000.0,038.1,030.8,35.1,-001.9,0012.69,0007.97,0007.46
2023-07-10 02:39:00,SystemResetWarning,0832.2,5.00,000.00,030.0,025.8,000.0,038.1,030.8,34.9,-001.9,0012.64,0007.97,0007.48
2023-07-10 02:40:00,SystemResetWarning,0832.2,4.98,000.00,030.2,026.2,000.0,038.2,030.9,34.5,-001.6,0012.77,0008.02,0007.51
2023-07-10 02:41:00,SystemResetWarning,0832.2,5.02,000.00,030.3,026.6,000.0,038.2,031.0,34.3,-001.3,0012.17,0008.06,0007.55
2023-07-10 02:42:00,SystemResetWarning,0832.2,4.99,000.00,030.3,027.0,000.0,038.2,031.0,34.2,-000.9,0011.58,0008.10,0007.59
2023-07-10 02:43:00,SystemResetWarning,0832.2,4.99,000.00,030.4,027.4,000.0,038.3,031.1,34.2,-000.4,0011.56,0008.10,0007.59
2023-07-10 02:44:00,SystemResetWarning,0832.2,5.02,000.00,030.4,027.6,000.0,038.3,031.2,34.1,-000.5,0011.54,0008.06,0007.58
2023-07-10 02:45:00,SystemResetWarning,0832.2,4.99,000.00,030.5,027.9,000.0,038.4,031.3,34.0,-000.6,0011.48,0008.02,0007.54
2023-07-10 02:46:00,SystemResetWarning,0832.3,4.98,000.00,030.5,027.4,000.0,038.4,031.2,33.9,-000.9,0011.82,0007.99,0007.48
2023-07-10 02:47:00,SystemResetWarning,0832.2,5.00,000.00,030.5,025.7,000.0,038.3,031.1,33.9,-001.1,0011.90,0007.98,0007.44
2023-07-10 02:48:00,SystemResetWarning,0832.2,5.00,000.00,030.4,024.9,000.0,038.2,030.9,34.1,-000.9,0011.86,0007.93,0007.41
2023-07-10 02:49:00,SystemResetWarning,0832.2,5.01,000.00,030.3,025.0,000.0,038.2,030.6,34.4,-001.1,0011.73,0007.85,0007.34
2023-07-10 02:50:00,SystemResetWarning,0832.2,5.01,000.00,030.1,025.4,000.0,038.3,030.6,34.8,-001.1,0012.26,0007.83,0007.29
2023-07-10 02:51:00,SystemResetWarning,0832.1,4.97,000.00,030.1,025.8,000.0,038.3,030.7,35.0,-001.2,0012.12,0007.75,0007.22
2023-07-10 02:52:00,SystemResetWarning,0832.2,5.04,000.00,030.2,026.3,000.0,038.3,030.8,35.0,-001.6,0012.20,0007.71,0007.15
2023-07-10 02:53:00,SystemResetWarning,0832.2,4.96,000.00,030.4,026.7,000.0,038.3,031.0,34.7,-001.8,0012.15,0007.64,0007.08
2023-07-10 02:54:00,SystemResetWarning,0832.3,5.01,000.00,030.5,027.1,000.0,038.4,031.1,34.4,-001.7,0012.15,0007.61,0007.03
2023-07-10 02:55:00,SystemResetWarning,0832.3,5.01,000.00,030.6,027.4,000.0,038.4,031.1,34.2,-001.3,0012.42,0007.61,0007.00
2023-07-10 02:56:00,SystemResetWarning,0832.3,5.00,000.00,030.6,027.7,000.0,038.4,031.2,34.1,-000.8,0012.53,0007.58,0006.97
2023-07-10 02:57:00,SystemResetWarning,0832.3,5.00,000.00,030.7,027.9,000.0,038.5,031.3,34.1,-000.4,0012.27,0007.56,0006.97
2023-07-10 02:58:00,SystemResetWarning,0832.4,4.99,000.00,030.7,028.1,000.0,038.6,031.3,34.0,0000.2,0012.26,0007.52,0006.95
2023-07-10 02:59:00,SystemResetWarning,0832.4,4.99,000.00,030.7,027.2,000.0,038.5,031.3,34.0,0000.7,0012.29,0007.49,0006.93
